Year,Month,Day,Hour,Minute,Value (Times are PST for temperature in C)
2014,07,13,00,00,19.70
2014,07,13,00,01,19.70
2014,07,13,00,02,19.70
2014,07,13,00,03,19.70
2014,07,13,00,04,19.70
2014,07,13,00,05,19.60
2014,07,13,00,06,19.60
2014,07,13,00,07,19.60
2014,07,13,00,08,19.60
2014,07,13,00,09,19.50
2014,07,13,00,10,19.50
2014,07,13,00,11,19.40
2014,07,13,00,12,19.40
2014,07,13,00,13,19.30
2014,07,13,00,14,19.30
2014,07,13,00,15,19.30
2014,07,13,00,16,19.20
2014,07,13,00,17,19.20
2014,07,13,00,18,19.20
2014,07,13,00,19,19.10
2014,07,13,00,20,19.10
2014,07,13,00,21,19.10
2014,07,13,00,22,19.10
2014,07,13,00,23,19.00
2014,07,13,00,24,19.00
2014,07,13,00,25,18.90
2014,07,13,00,26,18.90
2014,07,13,00,27,18.90
2014,07,13,00,28,18.90
2014,07,13,00,29,18.90
2014,07,13,00,30,18.80
2014,07,13,00,31,18.80
2014,07,13,00,32,18.80
2014,07,13,00,33,18.80
2014,07,13,00,34,18.80
2014,07,13,00,35,18.80
2014,07,13,00,36,18.80
2014,07,13,00,37,18.80
2014,07,13,00,38,18.70
2014,07,13,00,39,18.70
2014,07,13,00,40,18.70
2014,07,13,00,41,18.70
2014,07,13,00,42,18.70
2014,07,13,00,43,18.60
2014,07,13,00,44,18.60
2014,07,13,00,45,18.60
2014,07,13,00,46,18.60
2014,07,13,00,47,18.50
2014,07,13,00,48,18.50
2014,07,13,00,49,18.50
2014,07,13,00,50,18.40
2014,07,13,00,51,18.40
2014,07,13,00,52,18.40
2014,07,13,00,53,18.40
2014,07,13,00,54,18.40
2014,07,13,00,55,18.40
2014,07,13,00,56,18.30
2014,07,13,00,57,18.30
2014,07,13,00,58,18.30
2014,07,13,00,59,18.30
2014,07,13,01,00,18.30
2014,07,13,01,01,18.30
2014,07,13,01,02,18.30
2014,07,13,01,03,18.30
2014,07,13,01,04,18.30
2014,07,13,01,05,18.30
2014,07,13,01,06,18.20
2014,07,13,01,07,18.20
2014,07,13,01,08,18.20
2014,07,13,01,09,18.20
2014,07,13,01,10,18.20
2014,07,13,01,11,18.20
2014,07,13,01,12,18.20
2014,07,13,01,13,18.20
2014,07,13,01,14,18.20
2014,07,13,01,15,18.20
2014,07,13,01,16,18.20
2014,07,13,01,17,18.10
2014,07,13,01,18,18.10
2014,07,13,01,19,18.10
2014,07,13,01,20,18.10
2014,07,13,01,21,18.10
2014,07,13,01,22,18.10
2014,07,13,01,23,18.10
2014,07,13,01,24,18.10
2014,07,13,01,25,18.10
2014,07,13,01,26,18.10
2014,07,13,01,27,18.10
2014,07,13,01,28,18.10
2014,07,13,01,29,18.10
2014,07,13,01,30,18.10
2014,07,13,01,31,18.10
2014,07,13,01,32,18.10
2014,07,13,01,33,18.10
2014,07,13,01,34,18.10
2014,07,13,01,35,18.10
2014,07,13,01,36,18.10
2014,07,13,01,37,18.10
2014,07,13,01,38,18.10
2014,07,13,01,39,18.10
2014,07,13,01,40,18.10
2014,07,13,01,41,18.10
2014,07,13,01,42,18.00
2014,07,13,01,43,18.00
2014,07,13,01,44,18.00
2014,07,13,01,45,17.90
2014,07,13,01,46,17.90
2014,07,13,01,47,17.90
2014,07,13,01,48,17.90
2014,07,13,01,49,17.80
2014,07,13,01,50,17.80
2014,07,13,01,51,17.80
2014,07,13,01,52,17.80
2014,07,13,01,53,17.70
2014,07,13,01,54,17.70
2014,07,13,01,55,17.70
2014,07,13,01,56,17.60
2014,07,13,01,57,17.60
2014,07,13,01,58,17.60
2014,07,13,01,59,17.60
2014,07,13,02,00,17.60
2014,07,13,02,01,17.60
2014,07,13,02,02,17.60
2014,07,13,02,03,17.60
2014,07,13,02,04,17.60
2014,07,13,02,05,17.60
2014,07,13,02,06,17.60
2014,07,13,02,07,17.60
2014,07,13,02,08,17.60
2014,07,13,02,09,17.60
2014,07,13,02,10,17.60
2014,07,13,02,11,17.70
2014,07,13,02,12,17.70
2014,07,13,02,13,17.70
2014,07,13,02,14,17.70
2014,07,13,02,15,17.70
2014,07,13,02,16,17.70
2014,07,13,02,17,17.70
2014,07,13,02,18,17.80
2014,07,13,02,19,17.80
2014,07,13,02,20,17.80
2014,07,13,02,21,17.80
2014,07,13,02,22,17.80
2014,07,13,02,23,17.80
2014,07,13,02,24,17.80
2014,07,13,02,25,17.80
2014,07,13,02,26,17.80
2014,07,13,02,27,17.90
2014,07,13,02,28,17.90
2014,07,13,02,29,17.90
2014,07,13,02,30,17.90
2014,07,13,02,31,17.90
2014,07,13,02,32,17.80
2014,07,13,02,33,17.80
2014,07,13,02,34,17.80
2014,07,13,02,35,17.80
2014,07,13,02,36,17.80
2014,07,13,02,37,17.70
2014,07,13,02,38,17.70
2014,07,13,02,39,17.60
2014,07,13,02,40,17.50
2014,07,13,02,41,17.50
2014,07,13,02,42,17.40
2014,07,13,02,43,17.40
2014,07,13,02,44,17.40
2014,07,13,02,45,17.40
2014,07,13,02,46,17.30
2014,07,13,02,47,17.30
2014,07,13,02,48,17.30
2014,07,13,02,49,17.30
2014,07,13,02,50,17.30
2014,07,13,02,51,17.30
2014,07,13,02,52,17.30
2014,07,13,02,53,17.30
2014,07,13,02,54,17.30
2014,07,13,02,55,17.30
2014,07,13,02,56,17.30
2014,07,13,02,57,17.30
2014,07,13,02,58,17.30
2014,07,13,02,59,17.30
2014,07,13,03,00,17.30
2014,07,13,03,01,17.30
2014,07,13,03,02,17.30
2014,07,13,03,03,17.20
2014,07,13,03,04,17.20
2014,07,13,03,05,17.20
2014,07,13,03,06,17.20
2014,07,13,03,07,17.10
2014,07,13,03,08,17.10
2014,07,13,03,09,17.10
2014,07,13,03,10,17.10
2014,07,13,03,11,17.10
2014,07,13,03,12,17.00
2014,07,13,03,13,17.00
2014,07,13,03,14,17.00
2014,07,13,03,15,17.00
2014,07,13,03,16,16.90
2014,07,13,03,17,16.90
2014,07,13,03,18,16.90
2014,07,13,03,19,16.90
2014,07,13,03,20,16.80
2014,07,13,03,21,16.80
2014,07,13,03,22,16.80
2014,07,13,03,23,16.70
2014,07,13,03,24,16.70
2014,07,13,03,25,16.70
2014,07,13,03,26,16.60
2014,07,13,03,27,16.60
2014,07,13,03,28,16.60
2014,07,13,03,29,16.60
2014,07,13,03,30,16.50
2014,07,13,03,31,16.50
2014,07,13,03,32,16.50
2014,07,13,03,33,16.50
2014,07,13,03,34,16.50
2014,07,13,03,35,16.50
2014,07,13,03,36,16.50
2014,07,13,03,37,16.50
2014,07,13,03,38,16.50
2014,07,13,03,39,16.60
2014,07,13,03,40,16.60
2014,07,13,03,41,16.60
2014,07,13,03,42,16.60
2014,07,13,03,43,16.60
2014,07,13,03,44,16.60
2014,07,13,03,45,16.60
2014,07,13,03,46,16.60
2014,07,13,03,47,16.70
2014,07,13,03,48,16.70
2014,07,13,03,49,16.70
2014,07,13,03,50,16.70
2014,07,13,03,51,16.70
2014,07,13,03,52,16.70
2014,07,13,03,53,16.70
2014,07,13,03,54,16.70
2014,07,13,03,55,16.60
2014,07,13,03,56,16.60
2014,07,13,03,57,16.60
2014,07,13,03,58,16.60
2014,07,13,03,59,16.60
2014,07,13,04,00,16.60
2014,07,13,04,01,16.50
2014,07,13,04,02,16.50
2014,07,13,04,03,16.50
2014,07,13,04,04,16.40
2014,07,13,04,05,16.40
2014,07,13,04,06,16.40
2014,07,13,04,07,16.40
2014,07,13,04,08,16.40
2014,07,13,04,09,16.50
2014,07,13,04,10,16.50
2014,07,13,04,11,16.60
2014,07,13,04,12,16.60
2014,07,13,04,13,16.60
2014,07,13,04,14,16.70
2014,07,13,04,15,16.70
2014,07,13,04,16,16.70
2014,07,13,04,17,16.70
2014,07,13,04,18,16.80
2014,07,13,04,19,16.80
2014,07,13,04,20,16.80
2014,07,13,04,21,16.90
2014,07,13,04,22,16.90
2014,07,13,04,23,16.90
2014,07,13,04,24,16.90
2014,07,13,04,25,17.00
2014,07,13,04,26,17.00
2014,07,13,04,27,17.00
2014,07,13,04,28,17.10
2014,07,13,04,29,17.10
2014,07,13,04,30,17.10
2014,07,13,04,31,17.20
2014,07,13,04,32,17.20
2014,07,13,04,33,17.20
2014,07,13,04,34,17.20
2014,07,13,04,35,17.30
2014,07,13,04,36,17.30
2014,07,13,04,37,17.30
2014,07,13,04,38,17.40
2014,07,13,04,39,17.40
2014,07,13,04,40,17.40
2014,07,13,04,41,17.50
2014,07,13,04,42,17.50
2014,07,13,04,43,17.60
2014,07,13,04,44,17.60
2014,07,13,04,45,17.60
2014,07,13,04,46,17.70
2014,07,13,04,47,17.70
2014,07,13,04,48,17.70
2014,07,13,04,49,17.70
2014,07,13,04,50,17.70
2014,07,13,04,51,17.70
2014,07,13,04,52,17.70
2014,07,13,04,53,17.70
2014,07,13,04,54,17.70
2014,07,13,04,55,17.70
2014,07,13,04,56,17.70
2014,07,13,04,57,17.70
2014,07,13,04,58,17.70
2014,07,13,04,59,17.70
2014,07,13,05,00,17.70
2014,07,13,05,01,17.70
2014,07,13,05,02,17.70
2014,07,13,05,03,17.70
2014,07,13,05,04,17.80
2014,07,13,05,05,17.80
2014,07,13,05,06,17.80
2014,07,13,05,07,17.80
2014,07,13,05,08,17.80
2014,07,13,05,09,17.90
2014,07,13,05,10,17.90
2014,07,13,05,11,17.90
2014,07,13,05,12,17.90
2014,07,13,05,13,17.90
2014,07,13,05,14,17.90
2014,07,13,05,15,17.90
2014,07,13,05,16,17.90
2014,07,13,05,17,17.90
2014,07,13,05,18,17.90
2014,07,13,05,19,17.90
2014,07,13,05,20,17.90
2014,07,13,05,21,17.90
2014,07,13,05,22,17.90
2014,07,13,05,23,18.00
2014,07,13,05,24,17.90
2014,07,13,05,25,17.90
2014,07,13,05,26,17.90
2014,07,13,05,27,17.90
2014,07,13,05,28,17.90
2014,07,13,05,29,17.90
2014,07,13,05,30,17.80
2014,07,13,05,31,17.80
2014,07,13,05,32,17.70
2014,07,13,05,33,17.70
2014,07,13,05,34,17.70
2014,07,13,05,35,17.60
2014,07,13,05,36,17.60
2014,07,13,05,37,17.50
2014,07,13,05,38,17.40
2014,07,13,05,39,17.40
2014,07,13,05,40,17.40
2014,07,13,05,41,17.30
2014,07,13,05,42,17.30
2014,07,13,05,43,17.30
2014,07,13,05,44,17.30
2014,07,13,05,45,17.20
2014,07,13,05,46,17.20
2014,07,13,05,47,17.20
2014,07,13,05,48,17.20
2014,07,13,05,49,17.10
2014,07,13,05,50,17.10
2014,07,13,05,51,17.10
2014,07,13,05,52,17.10
2014,07,13,05,53,17.00
2014,07,13,05,54,17.00
2014,07,13,05,55,17.00
2014,07,13,05,56,17.00
2014,07,13,05,57,17.00
2014,07,13,05,58,16.90
2014,07,13,05,59,16.90
2014,07,13,06,00,16.90
2014,07,13,06,01,16.90
2014,07,13,06,02,16.80
2014,07,13,06,03,16.80
2014,07,13,06,04,16.80
2014,07,13,06,05,16.80
2014,07,13,06,06,16.80
2014,07,13,06,07,16.90
2014,07,13,06,08,16.90
2014,07,13,06,09,16.90
2014,07,13,06,10,16.90
2014,07,13,06,11,17.00
2014,07,13,06,12,17.00
2014,07,13,06,13,17.00
2014,07,13,06,14,17.10
2014,07,13,06,15,17.10
2014,07,13,06,16,17.10
2014,07,13,06,17,17.10
2014,07,13,06,18,17.10
2014,07,13,06,19,17.10
2014,07,13,06,20,17.10
2014,07,13,06,21,17.00
2014,07,13,06,22,17.00
2014,07,13,06,23,17.00
2014,07,13,06,24,17.00
2014,07,13,06,25,17.00
2014,07,13,06,26,17.00
2014,07,13,06,27,17.00
2014,07,13,06,28,17.00
2014,07,13,06,29,17.00
2014,07,13,06,30,16.90
2014,07,13,06,31,16.90
2014,07,13,06,32,16.90
2014,07,13,06,33,16.90
2014,07,13,06,34,16.90
2014,07,13,06,35,16.90
2014,07,13,06,36,16.90
2014,07,13,06,37,16.90
2014,07,13,06,38,16.90
2014,07,13,06,39,16.90
2014,07,13,06,40,16.90
2014,07,13,06,41,16.90
2014,07,13,06,42,17.00
2014,07,13,06,43,17.00
2014,07,13,06,44,17.00
2014,07,13,06,45,17.10
2014,07,13,06,46,17.10
2014,07,13,06,47,17.10
2014,07,13,06,48,17.10
2014,07,13,06,49,17.10
2014,07,13,06,50,17.20
2014,07,13,06,51,17.20
2014,07,13,06,52,17.30
2014,07,13,06,53,17.30
2014,07,13,06,54,17.40
2014,07,13,06,55,17.50
2014,07,13,06,56,17.50
2014,07,13,06,57,17.60
2014,07,13,06,58,17.70
2014,07,13,06,59,17.80
2014,07,13,07,00,17.90
2014,07,13,07,01,18.00
2014,07,13,07,02,18.10
2014,07,13,07,03,18.20
2014,07,13,07,04,18.40
2014,07,13,07,05,18.50
2014,07,13,07,06,18.60
2014,07,13,07,07,18.70
2014,07,13,07,08,18.80
2014,07,13,07,09,18.90
2014,07,13,07,10,18.90
2014,07,13,07,11,19.00
2014,07,13,07,12,19.10
2014,07,13,07,13,19.20
2014,07,13,07,14,19.30
2014,07,13,07,15,19.30
2014,07,13,07,16,19.40
2014,07,13,07,17,19.40
2014,07,13,07,18,19.50
2014,07,13,07,19,19.50
2014,07,13,07,20,19.60
2014,07,13,07,21,19.60
2014,07,13,07,22,19.70
2014,07,13,07,23,19.70
2014,07,13,07,24,19.70
2014,07,13,07,25,19.70
2014,07,13,07,26,19.80
2014,07,13,07,27,19.80
2014,07,13,07,28,19.90
2014,07,13,07,29,19.90
2014,07,13,07,30,20.00
2014,07,13,07,31,20.00
2014,07,13,07,32,20.10
2014,07,13,07,33,20.10
2014,07,13,07,34,20.20
2014,07,13,07,35,20.20
2014,07,13,07,36,20.30
2014,07,13,07,37,20.40
2014,07,13,07,38,20.50
2014,07,13,07,39,20.60
2014,07,13,07,40,20.70
2014,07,13,07,41,20.70
2014,07,13,07,42,20.80
2014,07,13,07,43,20.80
2014,07,13,07,44,20.90
2014,07,13,07,45,20.90
2014,07,13,07,46,21.00
2014,07,13,07,47,21.10
2014,07,13,07,48,21.10
2014,07,13,07,49,21.20
2014,07,13,07,50,21.20
2014,07,13,07,51,21.20
2014,07,13,07,52,21.30
2014,07,13,07,53,21.30
2014,07,13,07,54,21.30
2014,07,13,07,55,21.30
2014,07,13,07,56,21.30
2014,07,13,07,57,21.30
2014,07,13,07,58,21.40
2014,07,13,07,59,21.40
2014,07,13,08,00,21.40
2014,07,13,08,01,21.40
2014,07,13,08,02,21.40
2014,07,13,08,03,21.40
2014,07,13,08,04,21.40
2014,07,13,08,05,21.50
2014,07,13,08,06,21.50
2014,07,13,08,07,21.60
2014,07,13,08,08,21.60
2014,07,13,08,09,21.60
2014,07,13,08,10,21.60
2014,07,13,08,11,21.70
2014,07,13,08,12,21.70
2014,07,13,08,13,21.80
2014,07,13,08,14,21.80
2014,07,13,08,15,21.80
2014,07,13,08,16,21.80
2014,07,13,08,17,21.80
2014,07,13,08,18,21.90
2014,07,13,08,19,21.90
2014,07,13,08,20,21.90
2014,07,13,08,21,22.00
2014,07,13,08,22,22.00
2014,07,13,08,23,22.10
2014,07,13,08,24,22.10
2014,07,13,08,25,22.20
2014,07,13,08,26,22.20
2014,07,13,08,27,22.30
2014,07,13,08,28,22.30
2014,07,13,08,29,22.40
2014,07,13,08,30,22.40
2014,07,13,08,31,22.50
2014,07,13,08,32,22.50
2014,07,13,08,33,22.60
2014,07,13,08,34,22.60
2014,07,13,08,35,22.60
2014,07,13,08,36,22.60
2014,07,13,08,37,22.70
2014,07,13,08,38,22.70
2014,07,13,08,39,22.70
2014,07,13,08,40,22.70
2014,07,13,08,41,22.70
2014,07,13,08,42,22.80
2014,07,13,08,43,22.80
2014,07,13,08,44,22.90
2014,07,13,08,45,23.00
2014,07,13,08,46,23.00
2014,07,13,08,47,23.10
2014,07,13,08,48,23.20
2014,07,13,08,49,23.30
2014,07,13,08,50,23.30
2014,07,13,08,51,23.40
2014,07,13,08,52,23.40
2014,07,13,08,53,23.50
2014,07,13,08,54,23.50
2014,07,13,08,55,23.60
2014,07,13,08,56,23.50
2014,07,13,08,57,23.50
2014,07,13,08,58,23.40
2014,07,13,08,59,23.40
2014,07,13,09,00,23.30
2014,07,13,09,01,23.20
2014,07,13,09,02,23.20
2014,07,13,09,03,23.20
2014,07,13,09,04,23.10
2014,07,13,09,05,23.10
2014,07,13,09,06,23.10
2014,07,13,09,07,23.10
2014,07,13,09,08,23.10
2014,07,13,09,09,23.10
2014,07,13,09,10,23.10
2014,07,13,09,11,23.00
2014,07,13,09,12,23.00
2014,07,13,09,13,23.10
2014,07,13,09,14,23.10
2014,07,13,09,15,23.10
2014,07,13,09,16,23.20
2014,07,13,09,17,23.20
2014,07,13,09,18,23.30
2014,07,13,09,19,23.40
2014,07,13,09,20,23.40
2014,07,13,09,21,23.40
2014,07,13,09,22,23.30
2014,07,13,09,23,23.30
2014,07,13,09,24,23.30
2014,07,13,09,25,23.30
2014,07,13,09,26,23.30
2014,07,13,09,27,23.30
2014,07,13,09,28,23.30
2014,07,13,09,29,23.30
2014,07,13,09,30,23.30
2014,07,13,09,31,23.30
2014,07,13,09,32,23.30
2014,07,13,09,33,23.30
2014,07,13,09,34,23.30
2014,07,13,09,35,23.30
2014,07,13,09,36,23.30
2014,07,13,09,37,23.40
2014,07,13,09,38,23.40
2014,07,13,09,39,23.40
2014,07,13,09,40,23.40
2014,07,13,09,41,23.50
2014,07,13,09,42,23.60
2014,07,13,09,43,23.70
2014,07,13,09,44,23.70
2014,07,13,09,45,23.70
2014,07,13,09,46,23.80
2014,07,13,09,47,23.80
2014,07,13,09,48,23.80
2014,07,13,09,49,23.80
2014,07,13,09,50,23.80
2014,07,13,09,51,23.70
2014,07,13,09,52,23.70
2014,07,13,09,53,23.70
2014,07,13,09,54,23.70
2014,07,13,09,55,23.70
2014,07,13,09,56,23.70
2014,07,13,09,57,23.80
2014,07,13,09,58,23.80
2014,07,13,09,59,23.80
2014,07,13,10,00,23.90
2014,07,13,10,01,23.90
2014,07,13,10,02,23.90
2014,07,13,10,03,24.00
2014,07,13,10,04,24.10
2014,07,13,10,05,24.10
2014,07,13,10,06,24.20
2014,07,13,10,07,24.30
2014,07,13,10,08,24.40
2014,07,13,10,09,24.40
2014,07,13,10,10,24.50
2014,07,13,10,11,24.50
2014,07,13,10,12,24.60
2014,07,13,10,13,24.60
2014,07,13,10,14,24.70
2014,07,13,10,15,24.70
2014,07,13,10,16,24.80
2014,07,13,10,17,24.80
2014,07,13,10,18,24.90
2014,07,13,10,19,24.90
2014,07,13,10,20,24.90
2014,07,13,10,21,24.90
2014,07,13,10,22,24.80
2014,07,13,10,23,24.80
2014,07,13,10,24,24.80
2014,07,13,10,25,24.80
2014,07,13,10,26,24.80
2014,07,13,10,27,24.80
2014,07,13,10,28,24.80
2014,07,13,10,29,24.80
2014,07,13,10,30,24.80
2014,07,13,10,31,24.80
2014,07,13,10,32,24.70
2014,07,13,10,33,24.70
2014,07,13,10,34,24.70
2014,07,13,10,35,24.70
2014,07,13,10,36,24.80
2014,07,13,10,37,24.80
2014,07,13,10,38,24.70
2014,07,13,10,39,24.70
2014,07,13,10,40,24.70
2014,07,13,10,41,24.70
2014,07,13,10,42,24.70
2014,07,13,10,43,24.70
2014,07,13,10,44,24.70
2014,07,13,10,45,24.70
2014,07,13,10,46,24.70
2014,07,13,10,47,24.70
2014,07,13,10,48,24.70
2014,07,13,10,49,24.70
2014,07,13,10,50,24.70
2014,07,13,10,51,24.70
2014,07,13,10,52,24.70
2014,07,13,10,53,24.70
2014,07,13,10,54,24.70
2014,07,13,10,55,24.60
2014,07,13,10,56,24.70
2014,07,13,10,57,24.70
2014,07,13,10,58,24.60
2014,07,13,10,59,24.70
2014,07,13,11,00,24.70
2014,07,13,11,01,24.70
2014,07,13,11,02,24.70
2014,07,13,11,03,24.80
2014,07,13,11,04,24.80
2014,07,13,11,05,24.90
2014,07,13,11,06,24.90
2014,07,13,11,07,25.00
2014,07,13,11,08,25.10
2014,07,13,11,09,25.10
2014,07,13,11,10,25.20
2014,07,13,11,11,25.20
2014,07,13,11,12,25.20
2014,07,13,11,13,25.20
2014,07,13,11,14,25.20
2014,07,13,11,15,25.20
2014,07,13,11,16,25.10
2014,07,13,11,17,25.10
2014,07,13,11,18,25.10
2014,07,13,11,19,25.10
2014,07,13,11,20,25.10
2014,07,13,11,21,25.10
2014,07,13,11,22,25.00
2014,07,13,11,23,25.00
2014,07,13,11,24,25.10
2014,07,13,11,25,25.10
2014,07,13,11,26,25.20
2014,07,13,11,27,25.20
2014,07,13,11,28,25.30
2014,07,13,11,29,25.30
2014,07,13,11,30,25.40
2014,07,13,11,31,25.40
2014,07,13,11,32,25.40
2014,07,13,11,33,25.40
2014,07,13,11,34,25.40
2014,07,13,11,35,25.40
2014,07,13,11,36,25.50
2014,07,13,11,37,25.40
2014,07,13,11,38,25.40
2014,07,13,11,39,25.50
2014,07,13,11,40,25.50
2014,07,13,11,41,25.60
2014,07,13,11,42,25.60
2014,07,13,11,43,25.70
2014,07,13,11,44,25.70
2014,07,13,11,45,25.70
2014,07,13,11,46,25.80
2014,07,13,11,47,25.70
2014,07,13,11,48,25.70
2014,07,13,11,49,25.70
2014,07,13,11,50,25.70
2014,07,13,11,51,25.70
2014,07,13,11,52,25.80
2014,07,13,11,53,25.80
2014,07,13,11,54,25.80
2014,07,13,11,55,25.80
2014,07,13,11,56,25.80
2014,07,13,11,57,25.90
2014,07,13,11,58,25.90
2014,07,13,11,59,25.90
2014,07,13,12,00,25.90
2014,07,13,12,01,25.90
2014,07,13,12,02,25.90
2014,07,13,12,03,25.90
2014,07,13,12,04,26.00
2014,07,13,12,05,26.00
2014,07,13,12,06,26.10
2014,07,13,12,07,26.20
2014,07,13,12,08,26.20
2014,07,13,12,09,26.30
2014,07,13,12,10,26.40
2014,07,13,12,11,26.50
2014,07,13,12,12,26.50
2014,07,13,12,13,26.60
2014,07,13,12,14,26.60
2014,07,13,12,15,26.70
2014,07,13,12,16,26.80
2014,07,13,12,17,26.90
2014,07,13,12,18,26.90
2014,07,13,12,19,26.90
2014,07,13,12,20,26.90
2014,07,13,12,21,26.90
2014,07,13,12,22,26.90
2014,07,13,12,23,26.90
2014,07,13,12,24,26.90
2014,07,13,12,25,26.90
2014,07,13,12,26,26.90
2014,07,13,12,27,26.80
2014,07,13,12,28,26.80
2014,07,13,12,29,26.80
2014,07,13,12,30,26.70
2014,07,13,12,31,26.60
2014,07,13,12,32,26.60
2014,07,13,12,33,26.60
2014,07,13,12,34,26.70
2014,07,13,12,35,26.70
2014,07,13,12,36,26.70
2014,07,13,12,37,26.70
2014,07,13,12,38,26.70
2014,07,13,12,39,26.70
2014,07,13,12,40,26.80
2014,07,13,12,41,26.80
2014,07,13,12,42,26.90
2014,07,13,12,43,26.90
2014,07,13,12,44,27.10
2014,07,13,12,45,27.20
2014,07,13,12,46,27.20
2014,07,13,12,47,27.20
2014,07,13,12,48,27.10
2014,07,13,12,49,27.10
2014,07,13,12,50,27.10
2014,07,13,12,51,27.10
2014,07,13,12,52,27.10
2014,07,13,12,53,27.20
2014,07,13,12,54,27.20
2014,07,13,12,55,27.20
2014,07,13,12,56,27.30
2014,07,13,12,57,27.20
2014,07,13,12,58,27.20
2014,07,13,12,59,27.20
2014,07,13,13,00,27.10
2014,07,13,13,01,27.10
2014,07,13,13,02,27.20
2014,07,13,13,03,27.30
2014,07,13,13,04,27.30
2014,07,13,13,05,27.40
2014,07,13,13,06,27.50
2014,07,13,13,07,27.60
2014,07,13,13,08,27.70
2014,07,13,13,09,27.90
2014,07,13,13,10,27.90
2014,07,13,13,11,28.00
2014,07,13,13,12,28.00
2014,07,13,13,13,28.00
2014,07,13,13,14,28.10
2014,07,13,13,15,28.10
2014,07,13,13,16,28.10
2014,07,13,13,17,28.10
2014,07,13,13,18,28.10
2014,07,13,13,19,28.10
2014,07,13,13,20,28.20
2014,07,13,13,21,28.20
2014,07,13,13,22,28.30
2014,07,13,13,23,28.50
2014,07,13,13,24,28.60
2014,07,13,13,25,28.70
2014,07,13,13,26,28.80
2014,07,13,13,27,28.90
2014,07,13,13,28,28.90
2014,07,13,13,29,28.80
2014,07,13,13,30,28.80
2014,07,13,13,31,28.80
2014,07,13,13,32,28.80
2014,07,13,13,33,28.90
2014,07,13,13,34,28.90
2014,07,13,13,35,29.00
2014,07,13,13,36,29.00
2014,07,13,13,37,29.00
2014,07,13,13,38,29.10
2014,07,13,13,39,29.20
2014,07,13,13,40,29.30
2014,07,13,13,41,29.40
2014,07,13,13,42,29.40
2014,07,13,13,43,29.50
2014,07,13,13,44,29.60
2014,07,13,13,45,29.70
2014,07,13,13,46,29.70
2014,07,13,13,47,29.80
2014,07,13,13,48,29.70
2014,07,13,13,49,29.60
2014,07,13,13,50,29.60
2014,07,13,13,51,29.50
2014,07,13,13,52,29.50
2014,07,13,13,53,29.60
2014,07,13,13,54,29.60
2014,07,13,13,55,29.60
2014,07,13,13,56,29.60
2014,07,13,13,57,29.60
2014,07,13,13,58,29.60
2014,07,13,13,59,29.60
2014,07,13,14,00,29.60
2014,07,13,14,01,29.50
2014,07,13,14,02,29.40
2014,07,13,14,03,29.30
2014,07,13,14,04,29.20
2014,07,13,14,05,29.00
2014,07,13,14,06,28.80
2014,07,13,14,07,28.60
2014,07,13,14,08,28.40
2014,07,13,14,09,28.30
2014,07,13,14,10,28.20
2014,07,13,14,11,28.20
2014,07,13,14,12,28.10
2014,07,13,14,13,28.10
2014,07,13,14,14,28.10
2014,07,13,14,15,28.10
2014,07,13,14,16,28.10
2014,07,13,14,17,28.10
2014,07,13,14,18,28.10
2014,07,13,14,19,28.00
2014,07,13,14,20,28.00
2014,07,13,14,21,27.90
2014,07,13,14,22,27.70
2014,07,13,14,23,27.60
2014,07,13,14,24,27.50
2014,07,13,14,25,27.40
2014,07,13,14,26,27.30
2014,07,13,14,27,27.10
2014,07,13,14,28,27.10
2014,07,13,14,29,27.00
2014,07,13,14,30,26.90
2014,07,13,14,31,26.90
2014,07,13,14,32,26.90
2014,07,13,14,33,26.90
2014,07,13,14,34,26.80
2014,07,13,14,35,26.80
2014,07,13,14,36,26.70
2014,07,13,14,37,26.70
2014,07,13,14,38,26.60
2014,07,13,14,39,26.50
2014,07,13,14,40,26.50
2014,07,13,14,41,26.40
2014,07,13,14,42,26.30
2014,07,13,14,43,26.20
2014,07,13,14,44,26.20
2014,07,13,14,45,26.10
2014,07,13,14,46,26.00
2014,07,13,14,47,25.90
2014,07,13,14,48,25.90
2014,07,13,14,49,25.80
2014,07,13,14,50,25.80
2014,07,13,14,51,25.80
2014,07,13,14,52,25.70
2014,07,13,14,53,25.70
2014,07,13,14,54,25.70
2014,07,13,14,55,25.70
2014,07,13,14,56,25.70
2014,07,13,14,57,25.70
2014,07,13,14,58,25.60
2014,07,13,14,59,25.60
2014,07,13,15,00,25.60
2014,07,13,15,01,25.60
2014,07,13,15,02,25.60
2014,07,13,15,03,25.60
2014,07,13,15,04,25.60
2014,07,13,15,05,25.60
2014,07,13,15,06,25.60
2014,07,13,15,07,25.60
2014,07,13,15,08,25.60
2014,07,13,15,09,25.70
2014,07,13,15,10,25.70
2014,07,13,15,11,25.70
2014,07,13,15,12,25.70
2014,07,13,15,13,25.70
2014,07,13,15,14,25.70
2014,07,13,15,15,25.70
2014,07,13,15,16,25.70
2014,07,13,15,17,25.80
2014,07,13,15,18,25.70
2014,07,13,15,19,25.70
2014,07,13,15,20,25.70
2014,07,13,15,21,25.70
2014,07,13,15,22,25.70
2014,07,13,15,23,25.80
2014,07,13,15,24,25.80
2014,07,13,15,25,25.80
2014,07,13,15,26,25.80
2014,07,13,15,27,25.80
2014,07,13,15,28,25.90
2014,07,13,15,29,25.90
2014,07,13,15,30,25.90
2014,07,13,15,31,25.90
2014,07,13,15,32,25.90
2014,07,13,15,33,25.90
2014,07,13,15,34,25.90
2014,07,13,15,35,26.00
2014,07,13,15,36,26.10
2014,07,13,15,37,26.10
2014,07,13,15,38,26.20
2014,07,13,15,39,26.30
2014,07,13,15,40,26.40
2014,07,13,15,41,26.50
2014,07,13,15,42,26.60
2014,07,13,15,43,26.70
2014,07,13,15,44,26.70
2014,07,13,15,45,26.80
2014,07,13,15,46,26.80
2014,07,13,15,47,26.90
2014,07,13,15,48,26.90
2014,07,13,15,49,27.00
2014,07,13,15,50,27.00
2014,07,13,15,51,27.10
2014,07,13,15,52,27.20
2014,07,13,15,53,27.30
2014,07,13,15,54,27.30
2014,07,13,15,55,27.40
2014,07,13,15,56,27.40
2014,07,13,15,57,27.50
2014,07,13,15,58,27.60
2014,07,13,15,59,27.60
2014,07,13,16,00,27.70
2014,07,13,16,01,27.80
2014,07,13,16,02,27.90
2014,07,13,16,03,28.00
2014,07,13,16,04,28.00
2014,07,13,16,05,28.10
2014,07,13,16,06,28.20
2014,07,13,16,07,28.20
2014,07,13,16,08,28.20
2014,07,13,16,09,28.20
2014,07,13,16,10,28.30
2014,07,13,16,11,28.40
2014,07,13,16,12,28.60
2014,07,13,16,13,28.80
2014,07,13,16,14,29.00
2014,07,13,16,15,29.10
2014,07,13,16,16,29.20
2014,07,13,16,17,29.30
2014,07,13,16,18,29.30
2014,07,13,16,19,29.40
2014,07,13,16,20,29.60
2014,07,13,16,21,29.70
2014,07,13,16,22,29.80
2014,07,13,16,23,29.90
2014,07,13,16,24,30.00
2014,07,13,16,25,30.00
2014,07,13,16,26,30.10
2014,07,13,16,27,30.20
2014,07,13,16,28,30.30
2014,07,13,16,29,30.30
2014,07,13,16,30,30.30
2014,07,13,16,31,30.30
2014,07,13,16,32,30.30
2014,07,13,16,33,30.30
2014,07,13,16,34,30.30
2014,07,13,16,35,30.30
2014,07,13,16,36,30.40
2014,07,13,16,37,30.40
2014,07,13,16,38,30.50
2014,07,13,16,39,30.60
2014,07,13,16,40,30.60
2014,07,13,16,41,30.60
2014,07,13,16,42,30.70
2014,07,13,16,43,30.70
2014,07,13,16,44,30.70
2014,07,13,16,45,30.70
2014,07,13,16,46,30.80
2014,07,13,16,47,30.80
2014,07,13,16,48,30.80
2014,07,13,16,49,30.90
2014,07,13,16,50,30.90
2014,07,13,16,51,30.90
2014,07,13,16,52,31.00
2014,07,13,16,53,31.00
2014,07,13,16,54,31.00
2014,07,13,16,55,30.90
2014,07,13,16,56,31.00
2014,07,13,16,57,30.90
2014,07,13,16,58,30.90
2014,07,13,16,59,30.90
2014,07,13,17,00,30.90
2014,07,13,17,01,30.80
2014,07,13,17,02,30.80
2014,07,13,17,03,30.80
2014,07,13,17,04,30.80
2014,07,13,17,05,30.80
2014,07,13,17,06,30.90
2014,07,13,17,07,30.90
2014,07,13,17,08,30.90
2014,07,13,17,09,30.90
2014,07,13,17,10,30.90
2014,07,13,17,11,30.90
2014,07,13,17,12,30.90
2014,07,13,17,13,30.90
2014,07,13,17,14,30.80
2014,07,13,17,15,30.80
2014,07,13,17,16,30.80
2014,07,13,17,17,30.70
2014,07,13,17,18,30.60
2014,07,13,17,19,30.60